• Join FlightAware (Why Join?)
  • Login
  • US Flag 
08:05AM EDT


 

Airport Tracker/Info


-or-


 

Live Flight TrackerFlight Track Log ✈ TCF3559 ✈ 22-Apr-2013 ✈ KDEN - KCLE

Flight Track Log - Related Links

Times and Time Zones

All times are in EDT time to prevent confusion due to time zone crossing. See the TCF3559 flight status page for this flight to view local times or setup timezone preferences in your user account.

Time Position Orientation Groundspeed Altitude Reporting Facility
EDT Latitude Longitude Course Direction KTS MPH feet Rate Location/Type
11:14PM 39.8833 -104.6167 85° East 140 161 6,400  Level Denver TRACON
11:15PM 39.8833 -104.5333 90° East 208 239 7,600 1,680 Climbing Denver TRACON
11:16PM 39.8833 -104.4500 90° East 273 314 9,800 1,800 Climbing Denver TRACON
11:17PM 39.8667 -104.0045 90° East  Level FlightAware Approximate
11:17PM 39.8742 -104.4136 108° East 272 313 10,000  Level Denver Center
11:18PM 39.8667 -103.8387 90° East  Level FlightAware Approximate
11:18PM 39.8739 -104.2997 90° East 313 360 11,300  Level Denver Center
11:19PM 39.8872 -103.6764 85° East  Level FlightAware Approximate
11:19PM 39.8733 -104.1781 90° East 338 389 13,500  Level Denver Center
11:20PM 39.8982 -103.5111 85° East  Level FlightAware Approximate
11:20PM 39.8717 -104.0417 91° East 351 404 16,200  Level Denver Center
11:21PM 39.8711 -103.9039 90° East 380 437 17,900 1,740 Climbing Denver Center
11:22PM 39.8811 -103.7569 85° East 408 470 19,800 1,860 Climbing Denver Center
11:23PM 39.8981 -103.6072 82° East 414 476 21,800 1,740 Climbing Denver Center
11:24PM 39.9167 -103.4461 81° East 442 509 23,500 1,500 Climbing Denver Center
11:25PM 39.9325 -103.3086 81° East 454 522 24,900 1,380 Climbing Denver Center
11:26PM 39.9542 -103.1092 82° East 473 544 26,400 1,440 Climbing Denver Center
11:27PM 39.9758 -102.9017 82° East 490 564 27,900 1,260 Climbing Denver Center
11:28PM 39.9975 -102.7178 81° East 508 585 29,000 660 Climbing Denver Center
11:29PM 40.0144 -102.5456 83° East 522 601 29,300 480 Climbing Denver Center
11:30PM 40.0381 -102.3267 82° East 545 627 30,000 840 Climbing Denver Center
11:31PM 40.0569 -102.1378 82° East 548 631 31,100 960 Climbing Denver Center
11:32PM 40.0789 -101.9189 82° East 546 628 32,000 720 Climbing Denver Center
11:33PM 40.0981 -101.7306 82° East 548 631 32,600 480 Climbing Denver Center
11:34PM 40.1192 -101.5089 83° East 551 634 33,000 180 Climbing Denver Center
11:35PM 40.1375 -101.3167 83° East 558 642 33,000  Level Denver Center
11:36PM 40.1556 -101.1222 83° East 565 650 33,000  Level Denver Center
11:37PM 40.1761 -100.8983 83° East 561 646 33,000  Level Denver Center
11:38PM 40.1933 -100.7047 83° East 563 648 33,000  Level Denver Center
11:39PM 40.2269 -100.4825 79° East 562 647 33,000  Level Denver Center
11:40PM 40.2647 -100.2950 75° East 560 644 33,000  Level Denver Center
11:41PM 40.3089 -100.0761 75° East 560 644 33,000  Level Denver Center
11:42PM 40.3464 -99.8872 75° East 562 647 33,000  Level Denver Center
11:43PM 40.3856 -99.6889 75° East 564 649 33,000  Level Denver Center
11:44PM 40.4250 -99.4914 75° East 561 646 33,000  Level Denver Center
11:45PM 40.4622 -99.2944 76° East 559 643 33,000  Level Denver Center
11:46PM 40.5006 -99.0992 75° East 556 640 33,000  Level Denver Center
11:47PM 40.5444 -98.8669 76° East 553 636 33,000  Level Minneapolis Center
11:48PM 40.5808 -98.6711 76° East 555 639 33,000  Level Minneapolis Center
11:49PM 40.6172 -98.4739 76° East 557 641 33,000  Level Minneapolis Center
11:50PM 40.6536 -98.2789 76° East 556 640 33,000  Level Minneapolis Center
11:52PM 40.6889 -98.0825 77° East 555 639 33,000  Level Minneapolis Center
11:53PM 40.7317 -97.8453 77° East 556 640 33,000  Level Minneapolis Center
11:54PM 40.7736 -97.6094 77° East 555 639 33,000  Level Minneapolis Center
11:55PM 40.8075 -97.4114 77° East 555 639 33,000  Level Minneapolis Center
11:56PM 40.8422 -97.2122 77° East 554 638 33,000  Level Minneapolis Center
11:57PM 40.8769 -97.0158 77° East 554 638 33,000  Level Minneapolis Center
11:58PM 40.9117 -96.8189 77° East 552 635 33,000  Level Minneapolis Center
11:59PM 40.9422 -96.6222 78° East 551 634 33,000  Level Minneapolis Center
12:00AM 40.9675 -96.4250 80° East 549 632 33,000  Level Minneapolis Center
12:01AM 40.9944 -96.2275 80° East 549 632 33,000  Level Minneapolis Center
12:02AM 41.0197 -96.0317 80° East 547 629 33,000  Level Minneapolis Center
12:03AM 41.0456 -95.8369 80° East 546 628 33,000  Level Minneapolis Center
12:04AM 41.0706 -95.6433 80° East 542 624 33,000  Level Minneapolis Center
12:05AM 41.1017 -95.4072 80° East 545 627 33,000  Level Minneapolis Center
12:06AM 41.1258 -95.2106 81° East 543 625 33,000  Level Minneapolis Center
12:07AM 41.1497 -95.0136 81° East 542 624 33,000  Level Minneapolis Center
12:08AM 41.1742 -94.8172 81° East 541 623 33,000  Level Minneapolis Center
12:09AM 41.1978 -94.6217 81° East 538 619 33,000  Level Minneapolis Center
12:10AM 41.2211 -94.4286 81° East 534 615 33,000  Level Minneapolis Center
12:11AM 41.2453 -94.2356 80° East 532 612 33,000  Level Minneapolis Center
12:12AM 41.2644 -94.0411 82° East 533 613 33,000  Level Minneapolis Center
12:13AM 41.2869 -93.8486 81° East 532 612 33,000  Level Minneapolis Center
12:14AM 41.3092 -93.6581 81° East 529 609 33,000  Level Minneapolis Center
12:15AM 41.3300 -93.4719 81° East 523 602 33,000  Level Minneapolis Center
12:16AM 41.3503 -93.2903 81° East 507 583 33,000  Level Minneapolis Center
12:17AM 41.3700 -93.1064 82° East 503 579 33,000  Level Minneapolis Center
12:18AM 41.3933 -92.8831 82° East 508 585 33,000  Level Minneapolis Center
12:19AM 41.4125 -92.6994 82° East 504 580 33,000  Level Minneapolis Center
12:20AM 41.4314 -92.5167 82° East 502 578 33,000  Level Minneapolis Center
12:21AM 41.4475 -92.3481 83° East 496 571 33,000  Level Chicago Center
12:22AM 41.4661 -92.1664 82° East 499 574 33,000  Level Chicago Center
12:23AM 41.4831 -91.9936 82° East 486 559 33,000  Level Chicago Center
12:24AM 41.5006 -91.8156 82° East 488 562 33,000  Level Chicago Center
12:25AM 41.5169 -91.6386 83° East 487 560 33,000  Level Chicago Center
12:26AM 41.5575 -91.4322 75° East 487 560 33,000  Level Chicago Center
12:27AM 41.5889 -91.2603 76° East 484 557 33,000  Level Chicago Center
12:28AM 41.6053 -91.0842 83° East 482 555 33,000  Level Chicago Center
12:29AM 41.6214 -90.9056 83° East 488 562 33,000  Level Chicago Center
12:30AM 41.6369 -90.7289 83° East 485 558 33,000  Level Chicago Center
12:31AM 41.6519 -90.5647 83° East 487 560 33,000  Level Chicago Center
12:32AM 41.6678 -90.3844 83° East 487 560 33,000  Level Chicago Center
12:33AM 41.6819 -90.2064 84° East 483 556 33,000  Level Chicago Center
12:34AM 41.6961 -90.0283 84° East 481 554 33,000  Level Chicago Center
12:35AM 41.7119 -89.8506 83° East 480 552 33,000  Level Chicago Center
12:36AM 41.7261 -89.6706 84° East 482 555 33,000  Level Chicago Center
12:37AM 41.7406 -89.4769 84° East 480 552 33,000  Level Chicago Center
12:38AM 41.7553 -89.3000 84° East 479 551 33,000  Level Chicago Center
12:39AM 41.7681 -89.1250 84° East 478 550 33,000  Level Chicago Center
12:40AM 41.7811 -88.9489 84° East 479 551 33,000  Level Chicago Center
12:41AM 41.7931 -88.7717 85° East 481 554 33,000  Level Chicago Center
12:42AM 41.8053 -88.5950 85° East 477 549 33,000  Level Chicago Center
12:43AM 41.8169 -88.4169 85° East 479 551 33,000  Level Chicago Center
12:44AM 41.8300 -88.2394 84° East 478 550 33,000  Level Chicago Center
12:45AM 41.8414 -88.0619 85° East 476 548 33,000  Level Chicago Center
12:46AM 41.8531 -87.8853 85° East 474 545 33,000  Level Chicago Center
12:47AM 41.8639 -87.7083 85° East 475 547 33,000  Level Chicago Center
12:48AM 41.8742 -87.5314 85° East 476 548 33,000  Level Chicago Center
12:49AM 41.8850 -87.3536 85° East 479 551 33,000  Level Chicago Center
12:50AM 41.8947 -87.1769 86° East 477 549 33,000  Level Chicago Center
12:51AM 41.9061 -86.9656 86° East 477 549 33,000  Level Chicago Center
12:52AM 41.9158 -86.7872 86° East 482 555 33,000  Level Chicago Center
12:53AM 41.9261 -86.6147 85° East 479 551 33,000  Level Chicago Center
12:54AM 41.9356 -86.4386 86° East 477 549 33,000  Level Chicago Center
12:55AM 41.9444 -86.2617 86° East 477 549 33,000  Level Chicago Center
12:56AM 41.9528 -86.0839 86° East 476 548 33,000  Level Chicago Center
12:57AM 41.9606 -85.9064 87° East 476 548 33,000  Level Chicago Center
12:58AM 41.9689 -85.7267 86° East 478 550 33,000  Level Chicago Center
12:59AM 41.9769 -85.5489 86° East 474 545 33,000  Level Chicago Center
01:00AM 41.9847 -85.3692 87° East 476 548 33,000  Level Chicago Center
01:01AM 41.9925 -85.1781 87° East 476 548 33,000  Level Chicago Center
01:02AM 42.0000 -84.9978 87° East 483 556 33,000  Level Chicago Center
01:03AM 42.0056 -84.8233 87° East 473 544 33,000  Level Chicago Center
01:05AM 42.0101 -84.6460 88° East  Level FlightAware Approximate
01:12AM 42.0333 -83.4245 90° East  Level FlightAware Approximate
01:13AM 42.0236 -83.2505 94° East  Level FlightAware Approximate
01:14AM 42.0032 -83.0793 109° East  Level FlightAware Approximate
01:15AM 41.9825 -82.9073 97° East  Level FlightAware Approximate
01:16AM 41.9669 -82.7341 97° East  Level FlightAware Approximate
01:17AM 41.9510 -82.5610 97° East  Level FlightAware Approximate
01:18AM 41.9006 -82.4016 118° Southeast  Level FlightAware Approximate
01:19AM 41.8530 -82.2408 118° Southeast  Level FlightAware Approximate
01:20AM 41.7604 -82.1292 154° Southeast  Level FlightAware Approximate
01:21AM 41.6508 -82.0373 149° Southeast  Level FlightAware Approximate
01:22AM 41.5368 -81.9554 156° South  Level FlightAware Approximate
01:23AM 41.4277 -81.8639 159° South  Level FlightAware Approximate
01:24AM 41.4094 -81.8547 159° South  Level Estimated
01:25AM 41.4094 -81.8547 159° South  Level Estimated
01:26AM 41.4094 -81.8547 159° South  Level Estimated
01:27AM 41.4094 -81.8547 159° South  Level Estimated
01:28AM 41.4094 -81.8547 159° South  Level Estimated
01:29AM 41.4094 -81.8547 159° South  Level Estimated
01:30AM 41.4094 -81.8547 159° South  Level Estimated
01:31AM 41.4094 -81.8547 159° South  Level Estimated
01:32AM 41.4094 -81.8547 159° South  Level Estimated